User: anonymous   Login
Location: Observatorio Las Palmas
(29.0667°N, 110.9333°W)
Time: 16:34:38
(UTC-07:00)
Language:

NOAA 19 - Orbit

View from above orbital plane
View from above orbital plane
View from above satellite
View from above satellite

Ground track
Ground track

The orbit data is extracted from the following two-line orbital elements,

1 33591U 09005A   18055.20998795 +.00000120 +00000-0 +90521-4 0  9997
2 33591 099.1293 031.0711 0013041 285.6597 074.3135 14.12256451465964
Epoch (UTC): 24 February 2018 05:02:22
Eccentricity: 0.0013041
inclination: 99.1293°
perigee height: 842 km
apogee height: 861 km
right ascension of ascending node: 31.0711°
argument of perigee: 285.6597°
revolutions per day: 14.12256451
mean anomaly at epoch: 74.3135°
orbit number at epoch: 46596

The dashed part of the orbit path shows where the satellite is in the earth's shadow,  

DLR